DW9727 Weather Reports


Display with metric or nautical units.
time (UTC)temp
F
wind
direction
speed
MPH
gust
MPH
rain 1hr
in
rain 24hr
in
rain mn
in
humidity
%
barometer
mb
20260901063710 78 114 1.0 3.0 0.00 0.00 0.00 83 1011.3
20260901062711 78 98 2.0 3.0 0.00 0.00 0.00 84 1011.3
20260901061710 77 108 1.0 3.0 0.00 0.00 0.00 84 1011.3
20260901060712 77 111 2.0 3.0 0.00 0.00 0.00 86 1011.5
20260901055710 77 120 0.0 0.0 0.00 0.00 0.00 86 1011.6
20260901054710 76 120 0.0 0.0 0.00 0.00 0.00 86 1011.4
20260901053710 76 120 0.0 2.0 0.00 0.00 0.00 86 1011.6
20260901050711 76 119 1.0 6.0 0.00 0.00 0.00 86 1011.5
20260901045710 76 9 1.0 3.0 0.00 0.00 0.00 85 1011.6
20260901044711 77 327 0.0 0.0 0.00 0.00 0.00 84 1011.6
20260901043711 77 327 0.0 0.0 0.00 0.00 0.00 84 1011.6
20260901041710 77 326 0.0 0.0 0.00 0.00 0.00 82 1011.5
20260901040710 78 105 0.0 0.0 0.00 0.00 0.00 82 1011.5
20260901034710 78 105 0.0 0.0 0.00 0.00 0.00 81 1011.4
20260901033711 78 105 0.0 0.0 0.00 0.00 0.00 80 1011.4
20260901032710 79 105 0.0 2.0 0.00 0.00 0.00 80 1011.2
20260901031710 79 105 1.0 1.0 0.00 0.00 0.00 80 1011.3
20260901025711 79 105 0.0 3.0 0.00 0.00 0.00 79 1011.1
20260901021710 81 57 1.0 2.0 0.00 0.00 0.00 73 1010.6
20260901015711 83 57 0.0 1.0 0.00 0.00 0.00 69 1010.4
20260901014710 83 57 0.0 2.0 0.00 0.00 0.00 68 1010.2
20260901013711 84 171 0.0 1.0 0.00 0.00 0.00 67 1010.3
20260901012710 85 171 0.0 0.0 0.00 0.00 0.00 66 1010.2
20260901011710 85 171 0.0 2.0 0.00 0.00 0.00 65 1010.1
20260901010710 87 171 1.0 2.0 0.00 0.00 0.00 63 1010.3
20260901005710 87 171 1.0 3.0 0.00 0.00 0.00 61 1010.2
20260901003711 89 170 0.0 0.0 0.00 0.00 0.00 59 1010.2
20260901001711 89 170 1.0 2.0 0.00 0.00 0.00 57 1010.4
20260901000711 89 197 1.0 3.0 0.00 0.00 0.00 59 1010.3
20260831235710 89 218 1.0 2.0 0.00 0.00 0.00 58 1010.4
20260831234710 89 247 2.0 3.0 0.00 0.00 0.00 57 1010.5
20260831233710 89 232 1.0 3.0 0.00 0.00 0.00 56 1010.5
20260831232711 90 196 1.0 3.0 0.00 0.00 0.00 55 1010.5
20260831231711 90 219 1.0 3.0 0.00 0.00 0.00 56 1010.5
20260831225711 90 261 3.0 5.0 0.00 0.00 0.00 56 1010.6
20260831224710 90 229 3.0 5.0 0.00 0.00 0.00 55 1010.7
20260831223711 91 201 3.0 5.0 0.00 0.00 0.00 55 1010.8
20260831222710 91 185 2.0 5.0 0.00 0.00 0.00 55 1010.7
20260831220711 91 201 2.0 6.0 0.00 0.00 0.00 55 1010.9
20260831215710 90 248 2.0 3.0 0.00 0.00 0.00 55 1010.7
20260831214711 90 144 2.0 8.0 0.00 0.00 0.00 58 1010.9
20260831213711 90 136 2.0 7.0 0.00 0.00 0.00 57 1011.0
20260831212710 90 196 5.0 8.0 0.00 0.00 0.00 56 1011.0
20260831211711 90 154 3.0 6.0 0.00 0.00 0.00 56 1010.9
20260831210710 90 290 2.0 6.0 0.00 0.00 0.00 56 1010.9
20260831205711 89 200 0.0 7.0 0.00 0.00 0.00 57 1011.0
20260831204711 89 156 2.0 7.0 0.00 0.00 0.00 59 1011.2
20260831203710 89 204 2.0 8.0 0.00 0.00 0.00 60 1011.3
20260831202711 88 196 3.0 8.0 0.00 0.00 0.00 63 1011.3
20260831201710 88 49 2.0 8.0 0.00 0.00 0.00 64 1011.3
20260831200711 88 160 3.0 8.0 0.00 0.00 0.00 65 1011.4
20260831195710 88 116 2.0 5.0 0.00 0.00 0.00 64 1011.3
20260831194711 87 155 1.0 3.0 0.00 0.00 0.00 64 1011.3
20260831193711 86 260 1.0 6.0 0.00 0.00 0.00 67 1011.5
20260831192711 86 144 2.0 6.0 0.00 0.00 0.00 65 1011.4
20260831191710 85 167 3.0 5.0 0.00 0.00 0.00 68 1011.5
20260831190710 85 268 3.0 7.0 0.00 0.00 0.00 69 1011.6
20260831185710 85 300 3.0 6.0 0.00 0.00 0.00 69 1011.8
20260831184711 85 11 3.0 7.0 0.00 0.00 0.00 72 1011.8
20260831183710 84 222 1.0 8.0 0.00 0.00 0.00 70 1011.6
20260831181711 84 52 2.0 5.0 0.00 0.00 0.00 71 1011.8
20260831180710 83 323 0.0 6.0 0.00 0.00 0.00 71 1011.8
20260831175711 83 287 2.0 8.0 0.00 0.00 0.00 74 1011.9
20260831174711 82 65 3.0 8.0 0.00 0.00 0.00 72 1011.7
20260831173711 82 30 3.0 5.0 0.00 0.00 0.00 74 1011.8
20260831172710 81 310 0.0 7.0 0.00 0.00 0.00 73 1011.7
20260831171710 81 305 3.0 3.0 0.00 0.00 0.00 73 1011.8
20260831170711 80 9 4.0 7.0 0.00 0.00 0.00 76 1011.7
20260831165710 79 329 3.0 9.0 0.00 0.00 0.00 75 1011.4
20260831164710 79 288 3.0 9.0 0.00 0.00 0.00 77 1011.5
20260831163711 79 300 3.0 10.0 0.00 0.00 0.00 77 1011.5
20260831162711 78 5 3.0 10.0 0.00 0.00 0.00 78 1011.6
20260831161710 78 315 5.0 10.0 0.00 0.00 0.00 77 1011.4
20260831160711 77 311 9.0 13.0 0.00 0.00 0.00 78 1011.6
20260831155710 76 324 9.0 12.0 0.00 0.00 0.00 79 1011.3
20260831154710 76 329 6.0 10.0 0.00 0.00 0.00 80 1011.4
20260831153710 74 303 5.0 12.0 0.00 0.00 0.00 80 1011.4
20260831152711 74 300 5.0 12.0 0.00 0.00 0.00 82 1011.0
20260831151711 73 296 8.0 13.0 0.00 0.00 0.00 83 1011.3
20260831150710 73 315 7.0 13.0 0.00 0.00 0.00 83 1011.1
20260831145711 73 316 5.0 10.0 0.00 0.00 0.00 83 1010.9
20260831143710 72 315 9.0 13.0 0.00 0.00 0.00 85 1011.3
20260831142711 72 319 7.0 13.0 0.00 0.00 0.00 86 1010.7
20260831141711 71 332 6.0 15.0 0.00 0.00 0.00 86 1010.6
20260831135711 70 305 7.0 13.0 0.00 0.00 0.00 88 1010.4
20260831134711 70 0 7.0 13.0 0.00 0.00 0.00 88 1009.9
20260831133711 69 331 6.0 13.0 0.00 0.00 0.00 87 1010.0
20260831132710 69 12 7.0 12.0 0.00 0.00 0.00 87 1010.7
20260831131710 69 308 2.0 9.0 0.00 0.00 0.00 86 1010.8
20260831130710 69 324 5.0 9.0 0.00 0.00 0.00 86 1010.7
20260831125711 69 284 5.0 10.0 0.00 0.00 0.00 85 1011.6
20260831123711 69 219 10.0 18.0 0.00 0.00 0.00 86 1012.3
20260831122711 69 245 12.0 17.0 0.00 0.00 0.00 86 1011.9
20260831121711 69 244 7.0 12.0 0.00 0.00 0.00 86 1011.1
20260831120710 69 252 5.0 9.0 0.00 0.00 0.00 86 1010.5
20260831115710 70 286 5.0 13.0 0.00 0.00 0.00 86 1010.2
20260831114711 71 284 5.0 10.0 0.00 0.00 0.00 87 1009.9
20260831113710 71 261 3.0 10.0 0.00 0.00 0.00 87 1009.4
20260831111711 72 282 9.0 14.0 0.00 0.00 0.00 87 1009.1
20260831110710 73 285 7.0 12.0 0.00 0.00 0.00 89 1008.9
20260831105711 73 286 3.0 7.0 0.00 0.00 0.00 90 1008.8
20260831104711 73 260 2.0 6.0 0.00 0.00 0.00 90 1008.6
20260831103710 73 255 3.0 9.0 0.00 0.00 0.00 90 1008.2
20260831100711 72 253 3.0 6.0 0.00 0.00 0.00 92 1007.8
20260831095710 72 270 2.0 3.0 0.00 0.00 0.00 92 1007.9
20260831094711 72 299 1.0 2.0 0.00 0.00 0.00 92 1007.8
20260831091711 71 266 2.0 3.0 0.00 0.00 0.00 91 1007.6
20260831090710 71 261 1.0 3.0 0.00 0.00 0.00 91 1007.5
20260831085711 71 298 1.0 3.0 0.00 0.00 0.00 91 1007.3
20260831084711 72 304 0.0 2.0 0.00 0.00 0.00 91 1007.2
20260831083710 72 278 0.0 2.0 0.00 0.00 0.00 91 1007.1
20260831082711 72 295 1.0 3.0 0.00 0.00 0.00 91 1007.4
20260831081711 72 311 2.0 5.0 0.00 0.00 0.00 90 1007.2
20260831080711 72 307 1.0 3.0 0.00 0.00 0.00 90 1007.1
20260831075710 72 331 0.0 0.0 0.00 0.00 0.00 90 1007.1
20260831074710 73 331 0.0 0.0 0.00 0.00 0.00 90 1007.1
20260831072711 73 182 0.0 2.0 0.00 0.00 0.00 90 1007.2
20260831071711 73 182 1.0 3.0 0.00 0.00 0.00 90 1007.2
20260831065711 73 177 1.0 3.0 0.00 0.00 0.00 90 1007.2
20260831064710 73 194 0.0 2.0 0.00 0.00 0.00 91 1007.2